Location: Northwest Suburban Astronomers
(42.1100°N, 88.0300°W)
Time: 02:04:56
(UTC-06:00)

Daily predictions for brighter satellites

Satellite Brightness Start Highest point End
(mag) Time Altitude Azimuth Time Altitude Azimuth Time Altitude Azimuth
USA 229 DEB 4.4 03:50:54 49° NE 03:50:54 49° NE 03:57:44 10° ESE
USA 229 4.5 03:50:57 48° NE 03:50:57 48° NE 03:57:49 10° ESE
Cosmos 2237 Rocket 3.7 04:22:48 26° SSE 04:22:48 26° SSE 04:25:09 10° SSE
SL-16 R/B 2.9 04:22:49 47° NE 04:23:28 49° ENE 04:28:56 10° SE
Cosmos 2297 Rocket 2.6 04:33:23 55° NNE 04:33:23 55° NNE 04:37:46 10° NNE
COSMO-SKYMED 1 3.7 04:34:52 10° SE 04:38:57 42° ENE 04:39:28 40° NE
USA 234 4.3 04:34:44 10° E 04:40:37 37° NNE 04:42:59 28° NNW
Cosmos 2227 Rocket 3.1 04:46:54 35° N 04:46:54 35° N 04:50:17 10° NNE
Meteor 1-4 Rocket 4.4 04:48:27 27° NE 04:48:27 27° NE 04:50:35 10° NNE
Cosmos 1500 Rocket 4.1 04:52:33 42° NNE 04:53:46 59° E 04:58:09 10° SSE
Cosmos 1816 Rocket 4.4 04:49:09 10° N 04:55:31 86° W 05:01:46 10° S
Ariane Rocket 4.4 04:52:42 10° NNE 04:57:28 39° E 05:02:12 10° SSE
Cosmos 220 Rocket 4.1 05:01:45 45° S 05:03:03 75° ESE 05:07:26 10° NNE
Tsikada Rocket 4.0 05:04:33 30° NNW 05:07:41 57° W 05:13:48 10° SSW
SKYMED 3 4.4 05:04:36 10° SSE 05:08:56 89° E 05:09:53 55° NNW
Cosmos 2082 4.4 05:14:49 36° NW 05:14:49 36° NW 05:19:13 10° N
ATLAS CENTAUR R/B 4.4 05:14:04 11° N 05:15:18 12° NNE 05:17:31 10° NE
Cosmos 2333 Rocket 4.4 05:21:27 10° SW 05:21:27 10° SW 05:21:29 10° SW
CZ-4 R/B 3.9 05:17:41 10° NE 05:20:58 23° E 05:24:17 10° SSE
SeaSat 1 4.1 05:20:20 10° N 05:22:19 19° NNW 05:22:19 19° NNW
SKYMED 2 3.6 05:22:45 10° S 05:27:00 57° W 05:28:08 43° NW
Cosmos 1603 4.2 05:22:15 12° NNW 05:27:28 59° ENE 05:33:02 10° SE
Cosmos 968 Rocket 3.4 05:22:42 10° SSW 05:27:56 71° WNW 05:33:14 10° NNE
Cosmos 1725 Rocket 4.5 05:27:30 10° SW 05:33:08 35° WNW 05:38:49 10° N
NOAA 6 4.2 05:28:57 10° N 05:33:55 47° WNW 05:38:51 10° SW
Cosmos 773 Rocket 4.1 05:32:39 10° NNW 05:37:58 77° ENE 05:43:15 10° SSE
Coronas F rocket 4.4 05:38:16 10° NE 05:39:20 12° ENE 05:40:23 10° E
Cosmos 1328 4.0 05:40:35 36° NW 05:41:35 45° W 05:45:23 10° SSW
USA 229 DEB 4.3 05:38:23 26° WNW 05:41:38 40° WSW 05:48:15 10° S
USA 229 4.2 05:38:26 26° WNW 05:41:45 40° WSW 05:48:23 10° S
Cosmos 304 Rocket 4.2 05:43:29 30° WNW 05:44:59 38° WSW 05:49:22 10° S
Cosmos 1072 Rocket 4.4 05:40:55 10° S 05:47:05 86° W 05:53:15 10° N
Cosmos 2221 2.5 05:44:57 10° S 05:49:17 90° E 05:53:38 10° N
ISS -2.8 05:48:48 37° WSW 05:49:24 43° SW 05:52:30 10° SSE
OAO 2 Rocket 4.4 05:48:32 18° WSW 05:51:24 32° S 05:55:47 10° SE
CSL-04 Rocket 3.5 05:48:01 10° NNE 05:53:21 79° WNW 05:58:37 10° SSW
Aureole 1 4.2 05:51:13 10° SSW 05:54:16 87° ESE 05:57:50 10° NNE
NOSS 3-1 (A) 4.1 05:48:20 12° NW 05:55:40 90° NE 06:04:05 10° SSE
Cosmos 2227 4.1 05:50:49 10° SSW 05:56:25 80° WNW 06:02:05 10° NNE
Genesis I 3.1 05:53:49 20° NW 05:56:28 88° WSW 06:00:22 10° SSE
Cosmos 2058 2.9 05:52:31 10° NNW 05:56:34 56° W 06:00:37 10° S
Cosmos 1184 Rocket 3.7 05:55:47 10° N 05:59:02 50° ENE 06:02:15 10° SSE
Cosmos 1777 Rocket 3.9 05:56:28 10° SSW 06:01:39 68° WNW 06:06:51 10° NNE
ATLAS 2AS CENTAUR R/B 4.1 05:56:41 10° NNW 06:04:17 41° NE 06:11:28 10° ESE
SL-16 R/B 3.3 06:04:45 18° WNW 06:07:13 24° WSW 06:11:40 10° SSW
SL-8 R/B 3.8 06:03:57 19° WNW 06:07:24 72° NNE 06:12:11 10° ESE
SL-12 R/B (Aux Motor) 4.4 06:05:13 10° WSW 06:10:44 76° NNW 06:13:06 10° ENE
Cosmos 1703 3.2 06:06:58 10° NNW 06:10:52 66° W 06:14:45 10° S
TELKOM 3 3.0 06:09:30 22° WSW 06:10:55 57° NNW 06:13:03 10° NE
PSLV R/B 3.8 06:11:31 12° WSW 06:14:32 54° SSE 06:17:49 10° E
COSMO-SKYMED 1 4.0 06:12:23 10° SW 06:15:17 18° W 06:16:42 15° WNW
IDEFIX/ARIANE 42P 2.6 06:10:57 10° NNE 06:16:16 87° ESE 06:21:32 10° SSW
Cosmos 2297 Rocket 3.6 06:15:16 15° WNW 06:16:54 16° NW 06:20:25 10° N
Helios 1B rocket 2.9 06:13:44 10° SSE 06:17:47 65° ENE 06:21:52 10° N
Cosmos 2151 4.1 06:16:10 10° NW 06:19:31 23° W 06:22:54 10° SW
Cosmos 2228 Rocket 3.9 06:15:25 10° S 06:19:45 54° E 06:24:04 10° NNE
ERBS 3.0 06:18:03 17° WNW 06:20:20 37° SW 06:23:30 10° SSE
AQUARIUS 4.2 06:16:07 10° NNE 06:20:39 88° ESE 06:25:08 10° SSW
Cosmos 1356 Rocket 3.4 06:17:02 10° NNW 06:21:04 58° W 06:25:07 10° S
Meteor 1-4 Rocket 4.4 06:22:59 13° WNW 06:22:59 13° WNW 06:24:25 10° NW
SJ-7 4.4 06:18:54 10° NNE 06:22:56 90° WNW 06:26:59 10° SSW
USA 234 3.3 06:16:37 10° SE 06:23:11 87° SW 06:29:48 10° NW
Cosmos 1805 Rocket 3.8 06:19:31 10° NNW 06:23:48 49° W 06:28:02 10° SSW
Cosmos 1340 Rocket 3.7 06:20:34 10° NW 06:23:54 27° W 06:27:14 10° SSW
Cosmos 2344 4.2 06:17:11 10° SSW 06:24:45 66° ESE 06:33:10 10° NE
Cosmos 1271 Rocket 3.8 06:24:04 10° SW 06:27:05 22° WNW 06:30:07 10° NNW
Cosmos 2227 Rocket 4.0 06:29:02 10° NW 06:30:05 10° NW 06:31:08 10° NNW
Meteor 1-29 3.3 06:28:51 10° SSE 06:32:19 71° ENE 06:35:50 10° N
BREEZE-M DEB (TANK) 3.3 06:31:02 10° NW 06:33:32 25° N 06:35:25 10° ENE
Cosmos 923 Rocket 4.3 06:29:25 10° NNW 06:34:27 49° WSW 06:39:29 10° S
Ariane Rocket 3.9 06:32:01 10° N 06:36:14 27° WNW 06:40:26 10° WSW
Cosmos 1484 Rocket 3.2 06:35:33 10° NNE 06:39:34 73° E 06:43:33 10° S
SJ-12 4.3 06:35:58 10° N 06:39:50 41° WNW 06:43:39 10° SW
Cosmos 292 Rocket 4.1 06:36:09 10° NNW 06:40:43 45° WSW 06:45:17 10° S
Cosmos 2034 Rocket 4.2 06:35:56 10° SSW 06:41:52 48° WNW 06:47:54 10° N
Cosmos 1626 2.8 06:38:39 10° NNW 06:42:03 33° W 06:45:25 10° SSW
Cosmos 1680 Rocket 3.7 06:38:12 10° NNW 06:43:22 54° WSW 06:48:31 10° S
MONITOR-E 4.1 06:43:06 10° N 06:46:16 75° WNW 06:49:25 10° SSW
Cosmos 1898 Rocket 4.0 06:42:46 10° S 06:47:57 67° ESE 06:53:13 10° NNE
Sich 1 3.5 06:44:48 10° NNW 06:48:53 40° W 06:52:55 10° SSW
Nadezhda 4 Rocket 4.1 06:43:05 10° NNW 06:49:16 58° W 06:55:24 10° S
SMAP 3.3 06:45:29 10° N 06:49:57 48° WNW 06:54:25 10° SW
Cosmos 1943 3.3 06:44:51 10° NNW 06:50:30 65° WSW 06:56:06 10° S
Cosmos 1633 Rocket 3.4 06:47:03 10° NNW 06:51:11 43° W 06:55:18 10° SSW
